• In Uzbekistan
  • List of Countries
  • For 7 days
  • Water Temperature
  • Satellite Maps
  • Weather Map
  • Weather Widgets
  • user-avatar
    Login

    Hourly Weather Bardoli

    Today, 24 September, Monday

    Time Temperature Precipitation Wind Pressure Humidity
    00:00 +27°C° 0 mm 4 mps 755 mmHg 90%
    01:00 +27°C° 0 mm 4 mps 755 mmHg 91%
    02:00 +27°C° 0 mm 4 mps 755 mmHg 91%
    03:00 +27°C° 0 mm 3 mps 755 mmHg 91%
    04:00 +27°C° 0 mm 3 mps 755 mmHg 92%
    05:00 +26°C° 0 mm 3 mps 755 mmHg 93%
    06:00 +27°C° 0 mm 3 mps 756 mmHg 90%
    07:00 +28°C° 0 mm 3 mps 756 mmHg 87%
    08:00 +29°C° 0 mm 4 mps 756 mmHg 85%
    09:00 +30°C° 0 mm 4 mps 756 mmHg 80%
    10:00 +32°C° 0 mm 4 mps 756 mmHg 75%
    11:00 +33°C° 0 mm 4 mps 757 mmHg 69%
    12:00 +34°C° 0 mm 4 mps 756 mmHg 68%
    13:00 +34°C° 0 mm 4 mps 755 mmHg 66%
    14:00 +34°C° 0 mm 4 mps 755 mmHg 65%
    15:00 +33°C° 0 mm 4 mps 754 mmHg 68%
    16:00 +33°C° 0 mm 4 mps 754 mmHg 72%
    17:00 +30°C° 0 mm 4 mps 754 mmHg 75%
    18:00 +29°C° 0 mm 3 mps 754 mmHg 79%
    19:00 +28°C° 0 mm 3 mps 755 mmHg 82%
    20:00 +28°C° 0 mm 3 mps 755 mmHg 85%
    21:00 +27°C° 0 mm 3 mps 755 mmHg 86%
    22:00 +27°C° 0 mm 3 mps 755 mmHg 87%
    23:00 +27°C° 0 mm 3 mps 756 mmHg 89%

    Tomorrow, 25 September, Tuesday

    Time Temperature Precipitation Wind Pressure Humidity
    00:00 +27°C° 0 mm 3 mps 755 mmHg 89%
    01:00 +27°C° 0 mm 3 mps 755 mmHg 90%
    02:00 +26°C° 0 mm 2 mps 755 mmHg 91%
    03:00 +26°C° 0 mm 2 mps 755 mmHg 91%
    04:00 +26°C° 0 mm 2 mps 755 mmHg 92%
    05:00 +26°C° 0 mm 2 mps 755 mmHg 92%
    06:00 +27°C° 0 mm 2 mps 756 mmHg 89%
    07:00 +28°C° 0 mm 2 mps 756 mmHg 86%
    08:00 +29°C° 0 mm 2 mps 756 mmHg 83%
    09:00 +30°C° 0 mm 2 mps 756 mmHg 77%
    10:00 +31°C° 0 mm 2 mps 756 mmHg 71%
    11:00 +32°C° 0 mm 2 mps 756 mmHg 65%
    12:00 +34°C° 0 mm 2 mps 756 mmHg 63%
    13:00 +34°C° 0 mm 2 mps 755 mmHg 61%
    14:00 +35°C° 0 mm 3 mps 754 mmHg 59%
    15:00 +34°C° 0 mm 3 mps 754 mmHg 62%
    16:00 +34°C° 0 mm 3 mps 753 mmHg 65%
    17:00 +33°C° 0 mm 3 mps 753 mmHg 68%
    18:00 +30°C° 0 mm 3 mps 754 mmHg 72%
    19:00 +29°C° 0 mm 3 mps 754 mmHg 77%
    20:00 +28°C° 0 mm 3 mps 754 mmHg 82%
    21:00 +27°C° 0 mm 3 mps 754 mmHg 84%
    22:00 +27°C° 0 mm 3 mps 755 mmHg 86%
    23:00 +27°C° 0 mm 2 mps 755 mmHg 89%

    Day after tomorrow, 26 September, Wednesday

    Time Temperature Precipitation Wind Pressure Humidity
    00:00 +27°C° 0 mm 2 mps 754 mmHg 90%
    01:00 +26°C° 0 mm 2 mps 754 mmHg 91%
    02:00 +26°C° 0 mm 2 mps 754 mmHg 92%
    03:00 +26°C° 0 mm 2 mps 754 mmHg 92%
    04:00 +26°C° 0 mm 2 mps 754 mmHg 91%
    05:00 +26°C° 0 mm 2 mps 754 mmHg 91%
    06:00 +27°C° 0 mm 2 mps 754 mmHg 88%
    07:00 +28°C° 0 mm 1 mps 755 mmHg 85%
    08:00 +29°C° 0 mm 1 mps 755 mmHg 81%
    09:00 +30°C° 0 mm 1 mps 755 mmHg 74%
    10:00 +32°C° 0 mm 1 mps 755 mmHg 67%
    11:00 +33°C° 0 mm 1 mps 755 mmHg 60%
    12:00 +34°C° 0 mm 1 mps 754 mmHg 57%
    13:00 +35°C° 0 mm 1 mps 754 mmHg 54%
    14:00 +36°C° 0 mm 2 mps 753 mmHg 51%
    15:00 +36°C° 0 mm 2 mps 753 mmHg 54%
    16:00 +35°C° 0 mm 2 mps 752 mmHg 57%
    17:00 +35°C° 0 mm 2 mps 752 mmHg 60%
    18:00 +32°C° 0 mm 1 mps 753 mmHg 61%
    19:00 +31°C° 0 mm 1 mps 753 mmHg 63%
    20:00 +29°C° 0 mm 1 mps 754 mmHg 64%
    21:00 +29°C° 0 mm 1 mps 754 mmHg 66%
    22:00 +28°C° 0 mm 1 mps 754 mmHg 68%
    23:00 +28°C° 0 mm 1 mps 754 mmHg 71%

    27 September, Thursday

    Time Temperature Precipitation Wind Pressure Humidity
    00:00 +27°C° 0 mm 1 mps 754 mmHg 74%
    01:00 +27°C° 0 mm 1 mps 754 mmHg 77%
    02:00 +27°C° 0 mm 1 mps 753 mmHg 80%
    03:00 +26°C° 0 mm 1 mps 753 mmHg 81%
    04:00 +26°C° 0 mm 1 mps 753 mmHg 82%
    05:00 +26°C° 0 mm 1 mps 753 mmHg 84%
    06:00 +27°C° 0 mm 1 mps 754 mmHg 80%
    07:00 +28°C° 0 mm 1 mps 754 mmHg 76%
    08:00 +29°C° 0 mm 1 mps 755 mmHg 73%
    09:00 +31°C° 0 mm 1 mps 755 mmHg 65%
    10:00 +33°C° 0 mm 1 mps 755 mmHg 58%
    11:00 +35°C° 0 mm 1 mps 755 mmHg 50%
    12:00 +35°C° 0 mm 1 mps 754 mmHg 46%
    13:00 +36°C° 0 mm 1 mps 753 mmHg 43%
    14:00 +36°C° 0 mm 1 mps 752 mmHg 39%
    15:00 +36°C° 0 mm 1 mps 752 mmHg 43%
    16:00 +35°C° 0 mm 1 mps 752 mmHg 47%
    17:00 +34°C° 0 mm 1 mps 752 mmHg 51%
    18:00 +33°C° 0 mm 1 mps 752 mmHg 51%
    19:00 +31°C° 0 mm 1 mps 753 mmHg 51%
    20:00 +30°C° 0 mm 1 mps 754 mmHg 51%
    21:00 +29°C° 0 mm 1 mps 754 mmHg 52%
    22:00 +29°C° 0 mm 1 mps 754 mmHg 53%
    23:00 +28°C° 0 mm 2 mps 754 mmHg 55%

    28 September, Friday

    Time Temperature Precipitation Wind Pressure Humidity
    00:00 +28°C° 0 mm 1 mps 754 mmHg 56%
    01:00 +27°C° 0 mm 1 mps 753 mmHg 57%
    02:00 +27°C° 0 mm 1 mps 753 mmHg 58%
    03:00 +26°C° 0 mm 1 mps 753 mmHg 59%
    04:00 +26°C° 0 mm 1 mps 753 mmHg 60%
    05:00 +26°C° 0 mm 1 mps 753 mmHg 61%
    06:00 +27°C° 0 mm 1 mps 754 mmHg 60%
    07:00 +28°C° 0 mm 1 mps 754 mmHg 59%
    08:00 +30°C° 0 mm 1 mps 755 mmHg 59%
    09:00 +31°C° 0 mm 1 mps 755 mmHg 53%
    10:00 +33°C° 0 mm 1 mps 755 mmHg 47%
    11:00 +35°C° 0 mm 1 mps 755 mmHg 41%
    12:00 +36°C° 0 mm 1 mps 754 mmHg 39%
    13:00 +36°C° 0 mm 1 mps 753 mmHg 36%
    14:00 +38°C° 0 mm 2 mps 752 mmHg 34%
    15:00 +37°C° 0 mm 2 mps 752 mmHg 37%
    16:00 +36°C° 0 mm 2 mps 752 mmHg 41%
    17:00 +35°C° 0 mm 2 mps 752 mmHg 45%
    18:00 +33°C° 0 mm 1 mps 753 mmHg 45%
    19:00 +31°C° 0 mm 1 mps 754 mmHg 44%
    20:00 +30°C° 0 mm 1 mps 754 mmHg 44%
    21:00 +29°C° 0 mm 1 mps 754 mmHg 45%
    22:00 +29°C° 0 mm 2 mps 754 mmHg 47%
    23:00 +28°C° 0 mm 2 mps 754 mmHg 49%

    29 September, Saturday

    Time Temperature Precipitation Wind Pressure Humidity
    00:00 +28°C° 0 mm 2 mps 754 mmHg 50%
    01:00 +27°C° 0 mm 1 mps 754 mmHg 51%
    02:00 +27°C° 0 mm 1 mps 753 mmHg 52%
    03:00 +26°C° 0 mm 1 mps 753 mmHg 53%
    04:00 +26°C° 0 mm 1 mps 754 mmHg 54%
    05:00 +26°C° 0 mm 1 mps 754 mmHg 54%
    06:00 +27°C° 0 mm 1 mps 754 mmHg 54%
    07:00 +28°C° 0 mm 1 mps 755 mmHg 55%
    08:00 +29°C° 0 mm 1 mps 756 mmHg 55%
    09:00 +31°C° 0 mm 1 mps 755 mmHg 50%
    10:00 +33°C° 0 mm 1 mps 755 mmHg 45%
    11:00 +35°C° 0 mm 1 mps 755 mmHg 40%
    12:00 +36°C° 0 mm 1 mps 754 mmHg 37%
    13:00 +36°C° 0 mm 1 mps 754 mmHg 35%
    14:00 +37°C° 0 mm 1 mps 753 mmHg 33%
    15:00 +36°C° 0 mm 1 mps 753 mmHg 37%
    16:00 +35°C° 0 mm 1 mps 753 mmHg 41%
    17:00 +34°C° 0 mm 1 mps 753 mmHg 46%
    18:00 +33°C° 0 mm 1 mps 753 mmHg 45%
    19:00 +31°C° 0 mm 1 mps 754 mmHg 45%
    20:00 +30°C° 0 mm 1 mps 754 mmHg 45%
    21:00 +29°C° 0 mm 1 mps 754 mmHg 47%
    22:00 +29°C° 0 mm 1 mps 754 mmHg 48%
    23:00 +28°C° 0 mm 1 mps 754 mmHg 50%
    Show more